User: anonymous   Login
Location: ?
(35.4214°N, 139.3011°E)
Time: 14:06:25
(UTC+00:00)
Language:

NOSS 3-3 (C) - Orbit

View from above orbital plane
View from above orbital plane
View from above satellite
View from above satellite

Ground track
Ground track

The orbit data is extracted from the following two-line orbital elements,

1 28541U 05004C   20234.83412550 0.00000000  00000-0  00000-0 0    01
2 28541  63.3372 105.3507 0397900   0.8380 358.9163 13.40805508    03
Epoch (UTC): 21 August 2020 20:01:08
Eccentricity: 0.0397900
inclination: 63.3372°
perigee height: 808 km
apogee height: 1404 km
right ascension of ascending node: 105.3507°
argument of perigee: 0.8380°
revolutions per day: 13.40805508
mean anomaly at epoch: 358.9163°
orbit number at epoch: 0

The dashed part of the orbit path shows where the satellite is in the earth's shadow,  

DLR